• In Deutschland
  • Länderverzeichnis
  • Für 7 Tage
  • Wassertemperatur
  • Satellitenkarten
  • Wetterkarte
  • Widgets
  • user-avatar
    Anmelden

    Stündliche Wetter Suez

    Heute, 18 September, Dienstag

    Zeit Temperatur Niederschläge Wind Luftdruck Luftfeuchtigkeit
    00:00 +27°C° 0 mm 3 m/S 756 mmHg 72%
    01:00 +26°C° 0 mm 2 m/S 756 mmHg 75%
    02:00 +26°C° 0 mm 2 m/S 756 mmHg 79%
    03:00 +25°C° 0 mm 2 m/S 756 mmHg 81%
    04:00 +25°C° 0 mm 2 m/S 756 mmHg 83%
    05:00 +25°C° 0 mm 2 m/S 756 mmHg 84%
    06:00 +25°C° 0 mm 2 m/S 756 mmHg 80%
    07:00 +26°C° 0 mm 2 m/S 757 mmHg 75%
    08:00 +27°C° 0 mm 2 m/S 757 mmHg 69%
    09:00 +29°C° 0 mm 3 m/S 757 mmHg 60%
    10:00 +31°C° 0 mm 3 m/S 757 mmHg 51%
    11:00 +33°C° 0 mm 3 m/S 756 mmHg 42%
    12:00 +35°C° 0 mm 3 m/S 756 mmHg 37%
    13:00 +36°C° 0 mm 3 m/S 756 mmHg 32%
    14:00 +36°C° 0 mm 4 m/S 756 mmHg 31%
    15:00 +36°C° 0 mm 4 m/S 756 mmHg 31%
    16:00 +36°C° 0 mm 5 m/S 756 mmHg 31%
    17:00 +35°C° 0 mm 5 m/S 756 mmHg 31%
    18:00 +34°C° 0 mm 5 m/S 756 mmHg 37%
    19:00 +32°C° 0 mm 5 m/S 757 mmHg 42%
    20:00 +30°C° 0 mm 4 m/S 757 mmHg 48%
    21:00 +29°C° 0 mm 4 m/S 757 mmHg 53%
    22:00 +28°C° 0 mm 3 m/S 757 mmHg 57%
    23:00 +28°C° 0 mm 2 m/S 757 mmHg 62%

    Morgen, 19 September, Mittwoch

    Zeit Temperatur Niederschläge Wind Luftdruck Luftfeuchtigkeit
    00:00 +27°C° 0 mm 2 m/S 757 mmHg 65%
    01:00 +27°C° 0 mm 2 m/S 757 mmHg 67%
    02:00 +26°C° 0 mm 2 m/S 758 mmHg 69%
    03:00 +26°C° 0 mm 2 m/S 757 mmHg 71%
    04:00 +25°C° 0 mm 2 m/S 757 mmHg 73%
    05:00 +25°C° 0 mm 2 m/S 757 mmHg 75%
    06:00 +26°C° 0 mm 2 m/S 758 mmHg 70%
    07:00 +27°C° 0 mm 2 m/S 758 mmHg 65%
    08:00 +28°C° 0 mm 2 m/S 758 mmHg 61%
    09:00 +30°C° 0 mm 3 m/S 758 mmHg 52%
    10:00 +33°C° 0 mm 3 m/S 758 mmHg 42%
    11:00 +35°C° 0 mm 3 m/S 758 mmHg 33%
    12:00 +36°C° 0 mm 4 m/S 757 mmHg 30%
    13:00 +37°C° 0 mm 4 m/S 757 mmHg 26%
    14:00 +39°C° 0 mm 5 m/S 757 mmHg 22%
    15:00 +37°C° 0 mm 5 m/S 756 mmHg 24%
    16:00 +36°C° 0 mm 6 m/S 756 mmHg 26%
    17:00 +36°C° 0 mm 6 m/S 756 mmHg 27%
    18:00 +34°C° 0 mm 6 m/S 756 mmHg 35%
    19:00 +32°C° 0 mm 5 m/S 757 mmHg 42%
    20:00 +30°C° 0 mm 5 m/S 757 mmHg 50%
    21:00 +29°C° 0 mm 4 m/S 758 mmHg 56%
    22:00 +28°C° 0 mm 4 m/S 758 mmHg 61%
    23:00 +28°C° 0 mm 3 m/S 758 mmHg 67%

    übermorgen, 20 September, Donnerstag

    Zeit Temperatur Niederschläge Wind Luftdruck Luftfeuchtigkeit
    00:00 +27°C° 0 mm 3 m/S 758 mmHg 71%
    01:00 +27°C° 0 mm 3 m/S 758 mmHg 74%
    02:00 +26°C° 0 mm 3 m/S 758 mmHg 78%
    03:00 +26°C° 0 mm 2 m/S 758 mmHg 81%
    04:00 +25°C° 0 mm 2 m/S 758 mmHg 83%
    05:00 +25°C° 0 mm 2 m/S 758 mmHg 86%
    06:00 +26°C° 0 mm 2 m/S 758 mmHg 82%
    07:00 +27°C° 0 mm 2 m/S 758 mmHg 77%
    08:00 +28°C° 0 mm 2 m/S 759 mmHg 72%
    09:00 +29°C° 0 mm 3 m/S 758 mmHg 61%
    10:00 +31°C° 0 mm 3 m/S 758 mmHg 50%
    11:00 +34°C° 0 mm 3 m/S 758 mmHg 39%
    12:00 +35°C° 0 mm 3 m/S 758 mmHg 35%
    13:00 +36°C° 0 mm 3 m/S 757 mmHg 31%
    14:00 +37°C° 0 mm 3 m/S 756 mmHg 27%
    15:00 +37°C° 0 mm 4 m/S 756 mmHg 28%
    16:00 +36°C° 0 mm 4 m/S 756 mmHg 28%
    17:00 +36°C° 0 mm 4 m/S 756 mmHg 29%
    18:00 +34°C° 0 mm 5 m/S 756 mmHg 37%
    19:00 +33°C° 0 mm 5 m/S 757 mmHg 45%
    20:00 +30°C° 0 mm 5 m/S 757 mmHg 53%
    21:00 +29°C° 0 mm 5 m/S 757 mmHg 57%
    22:00 +28°C° 0 mm 4 m/S 758 mmHg 61%
    23:00 +28°C° 0 mm 4 m/S 758 mmHg 65%

    21 September, Freitag

    Zeit Temperatur Niederschläge Wind Luftdruck Luftfeuchtigkeit
    00:00 +27°C° 0 mm 4 m/S 758 mmHg 69%
    01:00 +27°C° 0 mm 3 m/S 758 mmHg 72%
    02:00 +26°C° 0 mm 3 m/S 757 mmHg 76%
    03:00 +26°C° 0 mm 3 m/S 757 mmHg 79%
    04:00 +25°C° 0 mm 3 m/S 758 mmHg 82%
    05:00 +25°C° 0 mm 2 m/S 758 mmHg 85%
    06:00 +26°C° 0 mm 2 m/S 758 mmHg 81%
    07:00 +26°C° 0 mm 3 m/S 758 mmHg 76%
    08:00 +27°C° 0 mm 3 m/S 758 mmHg 72%
    09:00 +29°C° 0 mm 3 m/S 758 mmHg 63%
    10:00 +30°C° 0 mm 3 m/S 758 mmHg 54%
    11:00 +33°C° 0 mm 3 m/S 758 mmHg 45%
    12:00 +34°C° 0 mm 3 m/S 757 mmHg 39%
    13:00 +35°C° 0 mm 3 m/S 757 mmHg 34%
    14:00 +36°C° 0 mm 3 m/S 756 mmHg 29%
    15:00 +36°C° 0 mm 4 m/S 756 mmHg 30%
    16:00 +35°C° 0 mm 5 m/S 756 mmHg 31%
    17:00 +35°C° 0 mm 5 m/S 756 mmHg 32%
    18:00 +33°C° 0 mm 5 m/S 757 mmHg 39%
    19:00 +32°C° 0 mm 5 m/S 757 mmHg 47%
    20:00 +29°C° 0 mm 5 m/S 758 mmHg 54%
    21:00 +28°C° 0 mm 4 m/S 758 mmHg 57%
    22:00 +28°C° 0 mm 4 m/S 758 mmHg 61%
    23:00 +27°C° 0 mm 3 m/S 758 mmHg 64%

    22 September, Samstag

    Zeit Temperatur Niederschläge Wind Luftdruck Luftfeuchtigkeit
    00:00 +26°C° 0 mm 3 m/S 758 mmHg 67%
    01:00 +26°C° 0 mm 3 m/S 758 mmHg 70%
    02:00 +26°C° 0 mm 3 m/S 758 mmHg 72%
    03:00 +25°C° 0 mm 2 m/S 758 mmHg 75%
    04:00 +25°C° 0 mm 2 m/S 758 mmHg 77%
    05:00 +24°C° 0 mm 2 m/S 758 mmHg 79%
    06:00 +25°C° 0 mm 3 m/S 759 mmHg 74%
    07:00 +26°C° 0 mm 3 m/S 759 mmHg 69%
    08:00 +27°C° 0 mm 3 m/S 759 mmHg 64%
    09:00 +29°C° 0 mm 3 m/S 759 mmHg 55%
    10:00 +31°C° 0 mm 3 m/S 759 mmHg 46%
    11:00 +33°C° 0 mm 4 m/S 758 mmHg 37%
    12:00 +34°C° 0 mm 4 m/S 758 mmHg 34%
    13:00 +35°C° 0 mm 4 m/S 757 mmHg 30%
    14:00 +37°C° 0 mm 4 m/S 757 mmHg 27%
    15:00 +36°C° 0 mm 5 m/S 757 mmHg 30%
    16:00 +35°C° 0 mm 6 m/S 757 mmHg 34%
    17:00 +34°C° 0 mm 6 m/S 757 mmHg 37%
    18:00 +33°C° 0 mm 6 m/S 758 mmHg 45%
    19:00 +30°C° 0 mm 5 m/S 758 mmHg 53%
    20:00 +29°C° 0 mm 5 m/S 759 mmHg 60%
    21:00 +28°C° 0 mm 4 m/S 759 mmHg 65%
    22:00 +27°C° 0 mm 4 m/S 759 mmHg 69%
    23:00 +27°C° 0 mm 3 m/S 759 mmHg 73%

    23 September, Sonntag

    Zeit Temperatur Niederschläge Wind Luftdruck Luftfeuchtigkeit
    00:00 +26°C° 0 mm 3 m/S 759 mmHg 75%
    01:00 +26°C° 0 mm 3 m/S 759 mmHg 78%
    02:00 +25°C° 0 mm 3 m/S 759 mmHg 81%
    03:00 +25°C° 0 mm 3 m/S 759 mmHg 84%
    04:00 +25°C° 0 mm 3 m/S 759 mmHg 86%
    05:00 +24°C° 0 mm 3 m/S 759 mmHg 88%
    06:00 +25°C° 0 mm 3 m/S 759 mmHg 82%
    07:00 +26°C° 0 mm 3 m/S 759 mmHg 77%
    08:00 +27°C° 0 mm 3 m/S 759 mmHg 72%
    09:00 +29°C° 0 mm 3 m/S 759 mmHg 61%
    10:00 +30°C° 0 mm 4 m/S 759 mmHg 51%
    11:00 +33°C° 0 mm 4 m/S 759 mmHg 40%
    12:00 +34°C° 0 mm 4 m/S 758 mmHg 36%
    13:00 +35°C° 0 mm 4 m/S 757 mmHg 32%
    14:00 +37°C° 0 mm 5 m/S 757 mmHg 27%
    15:00 +36°C° 0 mm 5 m/S 757 mmHg 31%
    16:00 +35°C° 0 mm 6 m/S 757 mmHg 34%
    17:00 +34°C° 0 mm 7 m/S 757 mmHg 37%
    18:00 +32°C° 0 mm 6 m/S 758 mmHg 45%
    19:00 +30°C° 0 mm 5 m/S 758 mmHg 53%
    20:00 +28°C° 0 mm 5 m/S 759 mmHg 61%
    21:00 +27°C° 0 mm 4 m/S 759 mmHg 65%
    22:00 +27°C° 0 mm 4 m/S 759 mmHg 69%
    23:00 +26°C° 0 mm 3 m/S 759 mmHg 73%
    Mehr zeigen